EW4557 Weather Reports


Display with metric or nautical units.
time (UTC)temp
F
wind
direction
speed
MPH
gust
MPH
rain 1hr
in
rain 24hr
in
rain mn
in
humidity
%
barometer
mb
20260508062515 45 0.0 0.0 0.00 0.01 0.00 70 1014.5
20260508061517 45 0 0.0 1.0 0.00 0.01 0.00 69 1014.5
20260508060517 45 0 0.0 2.0 0.00 0.01 0.00 70 1014.7
20260508055516 45 0 1.0 3.0 0.00 0.01 0.01 70 1014.4
20260508054556 46 0 1.0 3.0 0.00 0.01 0.01 69 1014.5
20260508052516 46 0.0 0.0 0.00 0.01 0.01 65 1014.7
20260508051516 47 0.0 0.0 0.00 0.01 0.01 64 1014.6
20260508050556 47 0.0 0.0 0.00 0.01 0.01 64 1014.5
20260508045516 48 0.0 0.0 0.00 0.01 0.01 63 1014.5
20260508044636 48 0 1.0 3.0 0.00 0.01 0.01 63 1014.5
20260508043556 48 0.0 0.0 0.00 0.01 0.01 61 1014.6
20260508042516 49 0.0 0.0 0.00 0.01 0.01 60 1014.8
20260508041516 49 0.0 0.0 0.00 0.01 0.01 58 1014.6
20260508040636 50 0.0 0.0 0.00 0.01 0.01 56 1014.7
20260508035556 50 0.0 0.0 0.00 0.03 0.01 55 1014.5
20260508034516 51 0 0.0 1.0 0.00 0.04 0.01 54 1014.5
20260508033516 52 0.0 1.0 0.00 0.04 0.01 53 1014.5
20260508032516 52 0 1.0 3.0 0.00 0.04 0.01 53 1014.0
20260508030556 55 0 0.0 2.0 0.00 0.05 0.01 45 1013.5
20260508025515 57 0.0 0.0 0.00 0.05 0.01 44 1013.7
20260508024516 58 0.0 0.0 0.00 0.05 0.01 41 1013.9
20260508021517 64 0.0 0.0 0.00 0.08 0.01 35 1014.3
20260508020515 66 0.0 2.0 0.00 0.08 0.01 30 1014.5
20260508015515 68 0.0 1.0 0.00 0.08 0.01 28 1014.7
20260508014515 69 0 0.0 1.0 0.00 0.08 0.01 27 1014.7
20260508013515 71 0 0.0 2.0 0.00 0.08 0.01 26 1014.9
20260508012515 72 0 0.0 3.0 0.00 0.09 0.01 25 1015.1
20260508011515 73 0 1.0 3.0 0.00 0.10 0.01 24 1015.3
20260508010555 73 0 1.0 4.0 0.00 0.12 0.01 24 1015.4
20260508005555 73 0 0.0 4.0 0.00 0.12 0.01 24 1015.2
20260508004515 74 0 3.0 5.0 0.00 0.12 0.01 23 1015.4
20260508003635 74 0 1.0 5.0 0.00 0.12 0.01 23 1015.3
20260508002555 75 0 3.0 5.0 0.00 0.12 0.01 23 1015.4
20260508000555 75 0 1.0 5.0 0.00 0.12 0.01 23 1015.4
20260507235515 75 0 2.0 4.0 0.00 0.12 0.01 22 1015.4
20260507234515 75 0 2.0 6.0 0.00 0.12 0.01 22 1015.5
20260507232515 75 0 3.0 10.0 0.00 0.12 0.01 20 1015.7
20260507231515 75 0 3.0 8.0 0.00 0.12 0.01 21 1015.8
20260507230635 74 0 3.0 6.0 0.00 0.12 0.01 22 1015.5
20260507225555 74 0 3.0 8.0 0.00 0.12 0.01 22 1015.6
20260507224515 74 0 5.0 11.0 0.00 0.12 0.01 21 1015.7
20260507223555 74 0 4.0 12.0 0.00 0.12 0.01 23 1015.5
20260507221555 73 0 5.0 11.0 0.00 0.12 0.01 24 1015.8
20260507220515 73 0 3.0 9.0 0.00 0.12 0.01 25 1016.0
20260507214555 72 0 3.0 10.0 0.00 0.12 0.01 25 1016.4
20260507213555 72 0 5.0 11.0 0.00 0.12 0.01 26 1016.7
20260507212635 71 0 4.0 10.0 0.00 0.12 0.01 26 1016.8
20260507210517 72 0 3.0 9.0 0.00 0.12 0.01 25 1017.6
20260507204517 70 0 5.0 13.0 0.00 0.12 0.01 27 1017.9
20260507203557 69 0 3.0 9.0 0.00 0.12 0.01 29 1018.1
20260507202557 69 0 3.0 8.0 0.00 0.12 0.01 28 1018.2
20260507201516 69 0 4.0 14.0 0.00 0.12 0.01 28 1018.4
20260507200516 68 0 4.0 10.0 0.00 0.12 0.01 33 1018.3
20260507195557 68 0 2.0 6.0 0.00 0.12 0.01 32 1018.8
20260507193637 66 0 3.0 9.0 0.00 0.12 0.01 36 1019.0
20260507192516 65 0 3.0 10.0 0.00 0.12 0.01 33 1018.8
20260507190516 64 0 5.0 12.0 0.00 0.12 0.01 41 1019.3
20260507185516 64 0 3.0 9.0 0.00 0.12 0.01 42 1019.5
20260507183516 63 0 4.0 9.0 0.00 0.12 0.01 47 1019.9
20260507182556 62 0 3.0 10.0 0.00 0.12 0.01 47 1020.2
20260507180558 61 0 6.0 15.0 0.00 0.12 0.01 52 1020.4
20260507175556 60 0 4.0 11.0 0.00 0.12 0.01 53 1020.5
20260507174516 60 0 6.0 12.0 0.00 0.12 0.01 55 1020.8
20260507173516 59 0 6.0 12.0 0.00 0.12 0.01 56 1020.9
20260507172556 58 0 7.0 13.0 0.00 0.12 0.01 58 1020.9
20260507170516 57 0 8.0 13.0 0.00 0.12 0.01 61 1021.2
20260507164556 55 0 8.0 15.0 0.00 0.12 0.01 65 1021.1
20260507163516 55 0 10.0 15.0 0.00 0.12 0.01 66 1021.2
20260507162516 54 0 5.0 13.0 0.00 0.12 0.01 71 1021.2
20260507161516 53 0 7.0 16.0 0.00 0.12 0.01 72 1021.2
20260507160556 52 0 6.0 13.0 0.00 0.12 0.01 75 1021.3
20260507155516 51 0 5.0 11.0 0.00 0.12 0.01 78 1021.1
20260507154516 50 0 3.0 8.0 0.00 0.12 0.01 83 1021.3
20260507151636 46 0 4.0 9.0 0.00 0.12 0.01 88 1021.3
20260507150556 45 0 3.0 8.0 0.00 0.12 0.01 91 1021.2
20260507145516 44 0 3.0 8.0 0.00 0.12 0.01 91 1021.3
20260507144516 44 0 3.0 6.0 0.00 0.12 0.01 91 1021.3
20260507143636 43 0 3.0 6.0 0.00 0.12 0.01 91 1021.1
20260507142516 43 0 4.0 9.0 0.00 0.12 0.01 91 1021.4
20260507141636 43 0 3.0 8.0 0.00 0.12 0.01 92 1021.4
20260507140636 42 0 4.0 8.0 0.00 0.12 0.01 92 1021.5
20260507135516 42 0 5.0 10.0 0.00 0.12 0.01 93 1021.5
20260507133516 42 0 3.0 9.0 0.00 0.12 0.01 93 1021.2
20260507132636 41 0 2.0 4.0 0.00 0.12 0.01 93 1021.0
20260507131516 41 0 1.0 3.0 0.00 0.12 0.01 94 1021.1
20260507130556 41 0 1.0 4.0 0.00 0.12 0.01 94 1021.0
20260507125515 40 0 1.0 5.0 0.00 0.12 0.01 94 1020.6
20260507124515 40 0 0.0 4.0 0.00 0.12 0.01 94 1020.7
20260507123515 39 0 0.0 3.0 0.00 0.12 0.01 94 1020.7
20260507121516 37 0 0.0 1.0 0.00 0.12 0.01 93 1020.5
20260507120555 37 0.0 0.0 0.00 0.12 0.01 93 1020.8
20260507114515 38 0 0.0 2.0 0.00 0.12 0.01 93 1021.6
20260507113555 38 0 0.0 2.0 0.00 0.12 0.01 93 1022.1
20260507112515 37 0 0.0 2.0 0.00 0.12 0.01 93 1022.4
20260507111556 37 0.0 1.0 0.00 0.12 0.01 94 1022.4
20260507110515 36 0 0.0 2.0 0.00 0.12 0.01 94 1022.5
20260507105555 34 0 0.0 2.0 0.00 0.12 0.01 93 1022.3
20260507103555 33 0.0 1.0 0.00 0.12 0.01 92 1022.7
20260507102635 33 0.0 0.0 0.00 0.12 0.01 92 1022.7
20260507101516 34 0.0 0.0 0.00 0.12 0.01 92 1022.6
20260507100515 33 0 0.0 3.0 0.00 0.12 0.01 91 1022.6
20260507095515 34 0.0 0.0 0.00 0.12 0.01 91 1022.6
20260507094555 34 0.0 0.0 0.00 0.12 0.01 91 1022.6
20260507093555 34 0.0 0.0 0.00 0.12 0.01 91 1022.5
20260507092515 34 0.0 0.0 0.00 0.12 0.01 91 1022.6
20260507091515 35 0.0 0.0 0.00 0.12 0.01 92 1022.8
20260507090515 34 0.0 0.0 0.00 0.12 0.01 91 1022.6
20260507085515 34 0.0 0.0 0.00 0.12 0.01 91 1022.4
20260507084635 35 0.0 0.0 0.00 0.12 0.01 91 1022.6
20260507083635 35 0.0 0.0 0.00 0.12 0.01 91 1022.7
20260507081555 35 0.0 0.0 0.00 0.12 0.01 91 1023.0
20260507080515 35 0.0 0.0 0.01 0.12 0.01 91 1023.1
20260507075555 35 0.0 0.0 0.01 0.12 0.01 91 1023.1
20260507074635 36 0.0 0.0 0.01 0.12 0.01 91 1023.2
20260507073515 36 0.0 0.0 0.01 0.12 0.01 90 1023.1
20260507072515 36 0.0 0.0 0.01 0.12 0.01 90 1023.1
20260507071635 36 0.0 0.0 0.01 0.12 0.01 90 1022.9
20260507070635 37 0.0 0.0 0.00 0.11 0.00 90 1023.1
20260507065555 37 0.0 0.0 0.00 0.11 0.00 90 1023.1
20260507064555 37 0.0 0.0 0.00 0.11 0.00 90 1022.8